Time,TemperatureF,DewpointF,PressureIn,WindDirection,WindDirectionDegrees,WindSpeedMPH,WindSpeedGustMPH,Humidity,HourlyPrecipIn,Conditions,Clouds,dailyrainin,SoftwareType,DateUTC
2013-01-15 00:00:00,38.5,37.2,30.24,SE,130,0.0,0.0,95,0.04,,-RA,0.00,VWS V14.01,2013-01-15 05:00:00,
2013-01-15 00:01:00,38.5,37.2,30.24,SE,129,0.0,0.0,95,0.04,,-RA,0.00,VWS V14.01,2013-01-15 05:01:00,
2013-01-15 00:06:00,38.4,37.1,30.24,SE,130,0.0,0.0,95,0.05,,-RA,0.01,VWS V14.01,2013-01-15 05:06:00,
2013-01-15 00:11:00,38.3,37.0,30.23,SE,129,0.0,0.0,95,0.05,,-RA,0.01,VWS V14.01,2013-01-15 05:11:00,
2013-01-15 00:16:00,38.2,36.9,30.23,SE,129,0.0,0.0,95,0.06,,-RA,0.02,VWS V14.01,2013-01-15 05:16:00,
2013-01-15 00:21:00,38.3,37.0,30.24,SE,130,0.0,0.0,95,0.05,,-RA,0.02,VWS V14.01,2013-01-15 05:21:00,
2013-01-15 00:26:00,38.3,37.0,30.24,West,277,0.0,0.0,95,0.06,,-RA,0.03,VWS V14.01,2013-01-15 05:26:00,
2013-01-15 00:31:00,38.1,36.8,30.24,West,277,0.0,0.0,95,0.06,,-RA,0.03,VWS V14.01,2013-01-15 05:31:00,
2013-01-15 00:36:00,38.0,36.7,30.23,West,273,0.0,0.0,95,0.05,,-RA,0.03,VWS V14.01,2013-01-15 05:36:00,
2013-01-15 00:41:00,38.0,36.7,30.23,West,273,0.0,1.0,95,0.06,,-RA,0.04,VWS V14.01,2013-01-15 05:41:00,
2013-01-15 00:46:00,38.0,36.7,30.24,NW,305,0.0,1.0,95,0.05,,-RA,0.04,VWS V14.01,2013-01-15 05:46:00,
2013-01-15 00:51:00,37.8,36.5,30.25,WNW,295,0.0,3.0,95,0.06,,-RA,0.05,VWS V14.01,2013-01-15 05:51:00,
2013-01-15 00:56:00,37.5,36.2,30.24,NNW,343,0.0,1.0,95,0.06,,-RA,0.06,VWS V14.01,2013-01-15 05:56:00,
2013-01-15 01:01:00,37.4,36.1,30.25,West,276,0.0,2.0,95,0.06,,-RA,0.06,VWS V14.01,2013-01-15 06:01:00,
2013-01-15 01:06:00,37.2,35.9,30.22,East,82,0.0,1.0,95,0.05,,-RA,0.06,VWS V14.01,2013-01-15 06:06:00,
2013-01-15 01:11:00,37.1,35.8,30.21,ESE,105,0.0,1.0,95,0.05,,-RA,0.06,VWS V14.01,2013-01-15 06:11:00,
2013-01-15 01:16:00,37.1,35.8,30.24,WNW,293,0.0,1.0,95,0.05,,-RA,0.07,VWS V14.01,2013-01-15 06:16:00,
2013-01-15 01:21:00,37.1,36.1,30.23,NW,318,0.0,0.0,96,0.05,,-RA,0.07,VWS V14.01,2013-01-15 06:21:00,
2013-01-15 01:27:00,37.0,36.0,30.23,WNW,300,0.0,1.0,96,0.05,,-RA,0.07,VWS V14.01,2013-01-15 06:27:00,
2013-01-15 01:32:00,37.0,36.2,30.24,WNW,288,0.0,0.0,97,0.04,,-RA,0.07,VWS V14.01,2013-01-15 06:32:00,
2013-01-15 01:37:00,37.0,36.2,30.24,NW,305,0.0,0.0,97,0.04,,-RA,0.07,VWS V14.01,2013-01-15 06:37:00,
2013-01-15 01:42:00,37.0,36.2,30.25,WNW,282,0.0,1.0,97,0.04,,-RA,0.08,VWS V14.01,2013-01-15 06:42:00,
2013-01-15 01:47:00,36.9,36.1,30.23,WNW,287,0.0,0.0,97,0.04,,-RA,0.08,VWS V14.01,2013-01-15 06:47:00,
2013-01-15 01:52:00,36.8,36.0,30.23,North,356,0.0,0.0,97,0.03,,-RA,0.08,VWS V14.01,2013-01-15 06:52:00,
2013-01-15 01:57:00,36.7,35.9,30.21,ESE,104,0.0,0.0,97,0.03,,-RA,0.08,VWS V14.01,2013-01-15 06:57:00,
2013-01-15 02:02:00,36.7,35.9,30.23,WNW,283,0.0,0.0,97,0.02,,-RA,0.08,VWS V14.01,2013-01-15 07:02:00,
2013-01-15 02:07:00,36.7,35.9,30.23,NNW,346,0.0,1.0,97,0.03,,-RA,0.09,VWS V14.01,2013-01-15 07:07:00,
2013-01-15 02:12:00,36.7,36.2,30.23,NW,321,2.0,3.0,98,0.03,,-RA,0.09,VWS V14.01,2013-01-15 07:12:00,
2013-01-15 02:17:00,36.7,36.2,30.24,WNW,293,0.0,2.0,98,0.02,,-RA,0.09,VWS V14.01,2013-01-15 07:17:00,
2013-01-15 02:22:00,36.7,36.2,30.24,WNW,300,3.0,6.0,98,0.02,,-RA,0.09,VWS V14.01,2013-01-15 07:22:00,
2013-01-15 02:27:00,36.6,36.1,30.23,WNW,298,3.0,6.0,98,0.02,,-RA,0.09,VWS V14.01,2013-01-15 07:27:00,
2013-01-15 02:32:00,36.5,36.0,30.24,West,275,0.0,6.0,98,0.02,,-RA,0.09,VWS V14.01,2013-01-15 07:32:00,
2013-01-15 02:37:00,36.6,36.1,30.23,NW,305,0.0,1.0,98,0.02,,-RA,0.09,VWS V14.01,2013-01-15 07:37:00,
2013-01-15 02:42:00,36.5,36.0,30.22,ESE,121,4.0,4.0,98,0.02,,-RA,0.09,VWS V14.01,2013-01-15 07:42:00,
2013-01-15 02:48:00,36.5,36.0,30.23,East,89,0.0,2.0,98,0.01,,-RA,0.09,VWS V14.01,2013-01-15 07:48:00,
2013-01-15 02:53:00,36.4,35.9,30.22,ESE,117,1.0,2.0,98,0.01,,-RA,0.09,VWS V14.01,2013-01-15 07:53:00,
2013-01-15 02:58:00,36.4,35.9,30.21,SE,128,4.0,5.0,98,0.01,,-RA,0.09,VWS V14.01,2013-01-15 07:58:00,
2013-01-15 03:03:00,36.4,35.9,30.22,ESE,114,2.0,9.0,98,0.01,,OVC023,0.09,VWS V14.01,2013-01-15 08:03:00,
2013-01-15 03:08:00,36.4,35.6,30.22,SE,145,1.0,2.0,97,0.01,,OVC023,0.09,VWS V14.01,2013-01-15 08:08:00,
2013-01-15 03:13:00,36.4,35.6,30.22,ESE,108,0.0,0.0,97,0.00,,OVC023,0.09,VWS V14.01,2013-01-15 08:13:00,
2013-01-15 03:18:00,36.3,35.5,30.23,NE,46,0.0,1.0,97,0.00,,OVC023,0.09,VWS V14.01,2013-01-15 08:18:00,
2013-01-15 03:23:00,36.3,35.5,30.23,North,357,0.0,1.0,97,0.00,,OVC023,0.09,VWS V14.01,2013-01-15 08:23:00,
2013-01-15 03:28:00,36.2,35.4,30.22,NNE,25,0.0,1.0,97,0.00,,OVC023,0.09,VWS V14.01,2013-01-15 08:28:00,
2013-01-15 03:33:00,36.2,35.4,30.22,NNW,333,1.0,1.0,97,0.00,,OVC044,0.09,VWS V14.01,2013-01-15 08:33:00,
2013-01-15 03:38:00,36.1,35.3,30.22,NNW,348,0.0,0.0,97,0.00,,OVC044,0.09,VWS V14.01,2013-01-15 08:38:00,
2013-01-15 03:43:00,36.1,35.3,30.22,North,11,0.0,1.0,97,0.00,,OVC044,0.09,VWS V14.01,2013-01-15 08:43:00,
2013-01-15 03:48:00,36.1,35.3,30.23,ENE,76,0.0,0.0,97,0.00,,OVC044,0.09,VWS V14.01,2013-01-15 08:48:00,
2013-01-15 03:53:00,36.0,35.2,30.23,NNW,344,0.0,1.0,97,0.00,,OVC044,0.09,VWS V14.01,2013-01-15 08:53:00,
2013-01-15 03:58:00,35.8,35.0,30.22,ENE,67,0.0,1.0,97,0.00,,OVC044,0.09,VWS V14.01,2013-01-15 08:58:00,
2013-01-15 04:03:00,35.7,34.7,30.22,WNW,288,0.0,1.0,96,0.00,,OVC044,0.09,VWS V14.01,2013-01-15 09:03:00,
2013-01-15 04:08:00,35.6,34.6,30.23,ENE,73,0.0,1.0,96,0.00,,OVC044,0.09,VWS V14.01,2013-01-15 09:08:00,
2013-01-15 04:13:00,35.4,34.4,30.23,NNW,340,1.0,1.0,96,0.00,,OVC044,0.09,VWS V14.01,2013-01-15 09:13:00,
2013-01-15 04:18:00,35.3,34.3,30.23,North,349,0.0,0.0,96,0.00,,OVC044,0.09,VWS V14.01,2013-01-15 09:18:00,
2013-01-15 04:23:00,35.2,34.2,30.23,NNW,340,0.0,1.0,96,0.00,,OVC044,0.09,VWS V14.01,2013-01-15 09:23:00,
2013-01-15 04:28:00,35.2,34.2,30.23,NE,40,0.0,1.0,96,0.00,,OVC044,0.09,VWS V14.01,2013-01-15 09:28:00,
2013-01-15 04:33:00,35.2,34.2,30.23,North,354,0.0,1.0,96,0.00,,OVC044,0.09,VWS V14.01,2013-01-15 09:33:00,
2013-01-15 04:38:00,35.2,34.4,30.23,NNE,25,0.0,0.0,97,0.00,,OVC044,0.09,VWS V14.01,2013-01-15 09:38:00,
2013-01-15 04:43:00,35.2,34.4,30.23,NNW,335,0.0,1.0,97,0.00,,OVC044,0.09,VWS V14.01,2013-01-15 09:43:00,
2013-01-15 04:48:00,35.2,34.4,30.24,North,360,0.0,1.0,97,0.00,,OVC044,0.09,VWS V14.01,2013-01-15 09:48:00,
2013-01-15 04:53:00,35.2,34.4,30.24,NNE,21,0.0,0.0,97,0.00,,OVC044,0.09,VWS V14.01,2013-01-15 09:53:00,
2013-01-15 04:58:00,35.2,34.4,30.24,North,355,0.0,0.0,97,0.00,,OVC044,0.09,VWS V14.01,2013-01-15 09:58:00,
2013-01-15 05:03:00,35.2,34.4,30.24,SSE,147,0.0,1.0,97,0.00,,OVC016,0.09,VWS V14.01,2013-01-15 10:03:00,
2013-01-15 05:08:00,35.1,34.3,30.24,North,9,0.0,1.0,97,0.00,,OVC016,0.09,VWS V14.01,2013-01-15 10:08:00,
2013-01-15 05:13:00,35.0,34.2,30.24,NE,35,0.0,1.0,97,0.00,,OVC016,0.09,VWS V14.01,2013-01-15 10:13:00,
2013-01-15 05:19:00,34.9,33.9,30.24,NE,47,0.0,1.0,96,0.00,,OVC016,0.09,VWS V14.01,2013-01-15 10:19:00,
2013-01-15 05:24:00,34.9,33.9,30.25,NW,319,0.0,1.0,96,0.00,,OVC016,0.09,VWS V14.01,2013-01-15 10:24:00,
2013-01-15 05:29:00,34.9,33.9,30.25,NNW,345,0.0,1.0,96,0.00,,OVC016,0.09,VWS V14.01,2013-01-15 10:29:00,
2013-01-15 05:34:00,34.9,33.9,30.25,East,82,0.0,1.0,96,0.00,,OVC016,0.09,VWS V14.01,2013-01-15 10:34:00,
2013-01-15 05:39:00,34.8,33.5,30.25,ENE,75,0.0,1.0,95,0.00,,OVC016,0.09,VWS V14.01,2013-01-15 10:39:00,
2013-01-15 05:44:00,34.8,33.2,30.25,ENE,65,0.0,2.0,94,0.00,,OVC016,0.09,VWS V14.01,2013-01-15 10:44:00,
2013-01-15 05:49:00,34.8,33.2,30.25,East,86,0.0,1.0,94,0.00,,OVC016,0.09,VWS V14.01,2013-01-15 10:49:00,
2013-01-15 05:54:00,34.8,33.2,30.25,NW,305,0.0,3.0,94,0.00,,OVC016,0.09,VWS V14.01,2013-01-15 10:54:00,
2013-01-15 05:59:00,34.7,33.2,30.25,NE,46,0.0,2.0,94,0.00,,OVC016,0.09,VWS V14.01,2013-01-15 10:59:00,
2013-01-15 06:04:00,34.7,32.9,30.25,NNE,29,0.0,0.0,93,0.00,,OVC016,0.09,VWS V14.01,2013-01-15 11:04:00,
2013-01-15 06:09:00,34.7,32.9,30.26,NW,315,0.0,0.0,93,0.00,,OVC016,0.09,VWS V14.01,2013-01-15 11:09:00,
2013-01-15 06:14:00,34.6,32.8,30.26,NNW,344,0.0,0.0,93,0.00,,OVC016,0.09,VWS V14.01,2013-01-15 11:14:00,
2013-01-15 06:19:00,34.6,32.8,30.26,SE,134,0.0,1.0,93,0.00,,OVC016,0.09,VWS V14.01,2013-01-15 11:19:00,
2013-01-15 06:24:00,34.6,32.8,30.26,NE,40,0.0,2.0,93,0.00,,OVC016,0.09,VWS V14.01,2013-01-15 11:24:00,
2013-01-15 06:29:00,34.6,32.8,30.27,NNW,347,0.0,1.0,93,0.00,,OVC016,0.09,VWS V14.01,2013-01-15 11:29:00,
2013-01-15 06:34:00,34.7,32.9,30.27,East,83,0.0,0.0,93,0.00,,OVC016,0.09,VWS V14.01,2013-01-15 11:34:00,
2013-01-15 06:39:00,34.6,32.5,30.27,NW,304,0.0,1.0,92,0.00,,OVC016,0.09,VWS V14.01,2013-01-15 11:39:00,
2013-01-15 06:44:00,34.7,32.9,30.27,North,354,0.0,0.0,93,0.00,,OVC016,0.09,VWS V14.01,2013-01-15 11:44:00,
2013-01-15 06:49:00,34.6,32.8,30.27,ENE,68,0.0,2.0,93,0.00,,OVC016,0.09,VWS V14.01,2013-01-15 11:49:00,
2013-01-15 06:54:00,34.6,32.8,30.27,East,89,0.0,1.0,93,0.00,,OVC016,0.09,VWS V14.01,2013-01-15 11:54:00,
2013-01-15 06:59:00,34.6,32.8,30.27,East,79,1.0,1.0,93,0.00,,OVC016,0.09,VWS V14.01,2013-01-15 11:59:00,
2013-01-15 07:04:00,34.6,32.5,30.28,SE,129,0.0,1.0,92,0.00,,OVC020,0.09,VWS V14.01,2013-01-15 12:04:00,
2013-01-15 07:09:00,34.6,32.5,30.28,NE,40,0.0,1.0,92,0.00,,OVC020,0.09,VWS V14.01,2013-01-15 12:09:00,
2013-01-15 07:14:00,34.6,32.5,30.28,ENE,76,0.0,2.0,92,0.00,,OVC020,0.09,VWS V14.01,2013-01-15 12:14:00,
2013-01-15 07:19:00,34.6,32.2,30.29,NE,34,0.0,1.0,91,0.00,,OVC020,0.09,VWS V14.01,2013-01-15 12:19:00,
2013-01-15 07:24:00,34.6,32.2,30.29,NW,309,0.0,1.0,91,0.00,,OVC020,0.09,VWS V14.01,2013-01-15 12:24:00,
2013-01-15 07:29:00,34.6,32.2,30.29,NE,35,0.0,1.0,91,0.00,,OVC020,0.09,VWS V14.01,2013-01-15 12:29:00,
2013-01-15 07:34:00,34.7,32.3,30.29,North,1,0.0,1.0,91,0.00,,OVC020,0.09,VWS V14.01,2013-01-15 12:34:00,
2013-01-15 07:39:00,34.7,32.3,30.30,NNE,13,0.0,1.0,91,0.00,,OVC020,0.09,VWS V14.01,2013-01-15 12:39:00,
2013-01-15 07:44:00,34.7,32.1,30.29,ENE,57,0.0,1.0,90,0.00,,OVC020,0.09,VWS V14.01,2013-01-15 12:44:00,
2013-01-15 07:49:00,34.7,32.3,30.30,NW,312,0.0,1.0,91,0.00,,OVC020,0.09,VWS V14.01,2013-01-15 12:49:00,
2013-01-15 07:55:00,34.7,32.1,30.30,NNE,26,0.0,4.0,90,0.00,,OVC020,0.09,VWS V14.01,2013-01-15 12:55:00,
2013-01-15 08:00:00,34.7,31.5,30.30,ENE,76,0.0,3.0,88,0.00,,OVC020,0.09,VWS V14.01,2013-01-15 13:00:00,
2013-01-15 08:05:00,34.7,31.8,30.31,NNW,346,0.0,1.0,89,0.00,,OVC022,0.09,VWS V14.01,2013-01-15 13:05:00,
2013-01-15 08:10:00,34.8,31.6,30.31,East,85,0.0,3.0,88,0.00,,OVC022,0.09,VWS V14.01,2013-01-15 13:10:00,
2013-01-15 08:15:00,34.8,31.6,30.31,NW,321,0.0,1.0,88,0.00,,OVC022,0.09,VWS V14.01,2013-01-15 13:15:00,
2013-01-15 08:20:00,34.9,31.7,30.31,NNE,27,0.0,3.0,88,0.00,,OVC022,0.09,VWS V14.01,2013-01-15 13:20:00,
2013-01-15 08:25:00,34.9,31.7,30.31,WNW,284,0.0,1.0,88,0.00,,OVC022,0.09,VWS V14.01,2013-01-15 13:25:00,
2013-01-15 08:30:00,34.9,31.7,30.32,SE,138,0.0,0.0,88,0.00,,OVC022,0.09,VWS V14.01,2013-01-15 13:30:00,
2013-01-15 08:35:00,34.9,31.4,30.32,East,84,0.0,1.0,87,0.00,,OVC022,0.09,VWS V14.01,2013-01-15 13:35:00,
2013-01-15 08:40:00,35.0,31.8,30.31,North,10,0.0,0.0,88,0.00,,OVC022,0.09,VWS V14.01,2013-01-15 13:40:00,
2013-01-15 08:45:00,35.0,31.5,30.32,ENE,74,3.0,3.0,87,0.00,,OVC022,0.09,VWS V14.01,2013-01-15 13:45:00,
2013-01-15 08:50:00,35.1,31.9,30.32,North,352,0.0,0.0,88,0.00,,OVC022,0.09,VWS V14.01,2013-01-15 13:50:00,
2013-01-15 08:55:00,35.2,31.7,30.32,North,351,0.0,0.0,87,0.00,,OVC022,0.09,VWS V14.01,2013-01-15 13:55:00,
2013-01-15 09:00:00,35.2,31.4,30.32,NNE,18,0.0,0.0,86,0.00,,OVC022,0.09,VWS V14.01,2013-01-15 14:00:00,
2013-01-15 09:05:00,35.2,31.1,30.32,NNW,342,1.0,1.0,85,0.00,,OVC028,0.09,VWS V14.01,2013-01-15 14:05:00,
2013-01-15 09:10:00,35.2,31.1,30.32,ESE,103,0.0,0.0,85,0.00,,OVC028,0.09,VWS V14.01,2013-01-15 14:10:00,
2013-01-15 09:15:00,35.2,31.1,30.32,ENE,65,0.0,0.0,85,0.00,,OVC028,0.09,VWS V14.01,2013-01-15 14:15:00,
2013-01-15 09:20:00,35.3,31.2,30.32,NNE,25,0.0,0.0,85,0.00,,OVC028,0.09,VWS V14.01,2013-01-15 14:20:00,
2013-01-15 09:25:00,35.3,31.2,30.32,East,84,0.0,0.0,85,0.00,,OVC028,0.09,VWS V14.01,2013-01-15 14:25:00,
2013-01-15 09:30:00,35.3,30.7,30.33,NNW,347,0.0,0.0,83,0.00,,OVC028,0.09,VWS V14.01,2013-01-15 14:30:00,
2013-01-15 09:35:00,35.2,30.0,30.32,East,83,0.0,0.0,81,0.00,,OVC075,0.09,VWS V14.01,2013-01-15 14:35:00,
2013-01-15 09:40:00,35.2,29.7,30.33,NNE,24,0.0,1.0,80,0.00,,OVC075,0.09,VWS V14.01,2013-01-15 14:40:00,
2013-01-15 09:45:00,35.1,29.6,30.33,NNW,347,0.0,0.0,80,0.00,,OVC075,0.09,VWS V14.01,2013-01-15 14:45:00,
2013-01-15 09:50:00,35.1,29.9,30.33,NNW,332,0.0,1.0,81,0.00,,OVC075,0.09,VWS V14.01,2013-01-15 14:50:00,
2013-01-15 09:55:00,35.1,29.9,30.33,ENE,62,0.0,1.0,81,0.00,,OVC075,0.09,VWS V14.01,2013-01-15 14:55:00,
2013-01-15 10:00:00,35.0,29.8,30.33,East,97,0.0,1.0,81,0.00,,OVC075,0.09,VWS V14.01,2013-01-15 15:00:00,
2013-01-15 10:05:00,35.0,29.8,30.33,SSE,155,0.0,0.0,81,0.00,,OVC075,0.09,VWS V14.01,2013-01-15 15:05:00,
2013-01-15 10:10:00,35.1,29.9,30.33,WNW,287,0.0,1.0,81,0.00,,OVC075,0.09,VWS V14.01,2013-01-15 15:10:00,
2013-01-15 10:15:00,35.3,29.8,30.33,East,94,0.0,1.0,80,0.00,,OVC075,0.09,VWS V14.01,2013-01-15 15:15:00,
2013-01-15 10:20:00,35.2,30.0,30.33,NE,50,0.0,1.0,81,0.00,,OVC075,0.09,VWS V14.01,2013-01-15 15:20:00,
2013-01-15 10:26:00,35.3,30.1,30.34,NW,321,0.0,0.0,81,0.00,,OVC075,0.09,VWS V14.01,2013-01-15 15:26:00,
2013-01-15 10:31:00,35.3,30.1,30.34,NNE,14,0.0,1.0,81,0.00,,OVC075,0.09,VWS V14.01,2013-01-15 15:31:00,
2013-01-15 10:36:00,35.3,30.1,30.34,NE,50,0.0,2.0,81,0.00,,OVC075,0.09,VWS V14.01,2013-01-15 15:36:00,
2013-01-15 10:41:00,35.4,29.9,30.33,NE,47,0.0,0.0,80,0.00,,OVC075,0.09,VWS V14.01,2013-01-15 15:41:00,
2013-01-15 10:46:00,35.5,30.3,30.33,NW,308,0.0,1.0,81,0.00,,OVC075,0.09,VWS V14.01,2013-01-15 15:46:00,
2013-01-15 10:51:00,35.6,30.4,30.34,SW,232,0.0,1.0,81,0.00,,OVC075,0.09,VWS V14.01,2013-01-15 15:51:00,
2013-01-15 10:56:00,35.6,30.0,30.34,ENE,63,0.0,1.0,80,0.00,,OVC075,0.09,VWS V14.01,2013-01-15 15:56:00,
2013-01-15 11:01:00,35.5,30.0,30.33,ENE,77,0.0,1.0,80,0.00,,OVC075,0.09,VWS V14.01,2013-01-15 16:01:00,
2013-01-15 11:06:00,35.3,29.8,30.33,North,360,0.0,5.0,80,0.00,,OVC075,0.09,VWS V14.01,2013-01-15 16:06:00,
2013-01-15 11:11:00,35.3,29.8,30.32,South,181,0.0,1.0,80,0.00,,OVC075,0.09,VWS V14.01,2013-01-15 16:11:00,
2013-01-15 11:16:00,35.5,30.0,30.33,SSW,205,0.0,0.0,80,0.00,,OVC075,0.09,VWS V14.01,2013-01-15 16:16:00,
2013-01-15 11:21:00,35.5,30.0,30.32,ENE,75,0.0,1.0,80,0.00,,OVC075,0.09,VWS V14.01,2013-01-15 16:21:00,
2013-01-15 11:26:00,35.4,28.9,30.33,ENE,76,0.0,4.0,77,0.00,,OVC075,0.09,VWS V14.01,2013-01-15 16:26:00,
2013-01-15 11:31:00,35.2,28.7,30.32,East,91,0.0,1.0,77,0.00,,OVC075,0.09,VWS V14.01,2013-01-15 16:31:00,
2013-01-15 11:36:00,35.1,29.3,30.31,WNW,295,0.0,0.0,79,0.00,,OVC075,0.09,VWS V14.01,2013-01-15 16:36:00,
2013-01-15 11:41:00,35.3,30.1,30.30,West,263,0.0,0.0,81,0.00,,OVC075,0.09,VWS V14.01,2013-01-15 16:41:00,
2013-01-15 11:46:00,35.2,29.4,30.29,East,99,1.0,4.0,79,0.00,,OVC075,0.09,VWS V14.01,2013-01-15 16:46:00,
2013-01-15 11:51:00,35.1,28.9,30.30,North,359,2.0,2.0,78,0.00,,OVC075,0.09,VWS V14.01,2013-01-15 16:51:00,
2013-01-15 11:56:00,35.1,28.9,30.29,East,96,4.0,5.0,78,0.00,,OVC075,0.09,VWS V14.01,2013-01-15 16:56:00,
2013-01-15 12:01:00,35.1,28.9,30.29,ESE,105,0.0,3.0,78,0.00,,OVC065,0.09,VWS V14.01,2013-01-15 17:01:00,
2013-01-15 12:06:00,35.1,29.3,30.29,ENE,65,1.0,2.0,79,0.00,,OVC065,0.09,VWS V14.01,2013-01-15 17:06:00,
2013-01-15 12:11:00,35.1,29.3,30.30,East,86,0.0,0.0,79,0.00,,OVC065,0.09,VWS V14.01,2013-01-15 17:11:00,
2013-01-15 12:16:00,35.2,29.7,30.29,WNW,284,0.0,0.0,80,0.00,,OVC065,0.09,VWS V14.01,2013-01-15 17:16:00,
2013-01-15 12:21:00,35.4,29.9,30.28,NNW,340,0.0,0.0,80,0.00,,OVC065,0.09,VWS V14.01,2013-01-15 17:21:00,
2013-01-15 12:26:00,35.3,29.1,30.28,NNW,346,1.0,4.0,78,0.00,,OVC065,0.09,VWS V14.01,2013-01-15 17:26:00,
2013-01-15 12:31:00,35.3,29.5,30.28,WNW,300,3.0,3.0,79,0.00,,OVC065,0.09,VWS V14.01,2013-01-15 17:31:00,
2013-01-15 12:36:00,35.3,29.5,30.28,WNW,282,0.0,1.0,79,0.00,,OVC065,0.09,VWS V14.01,2013-01-15 17:36:00,
2013-01-15 12:41:00,35.4,29.5,30.27,NE,47,1.0,3.0,79,0.00,,OVC065,0.09,VWS V14.01,2013-01-15 17:41:00,
2013-01-15 12:47:00,35.3,28.8,30.27,WNW,285,0.0,1.0,77,0.00,,OVC065,0.09,VWS V14.01,2013-01-15 17:47:00,
2013-01-15 12:52:00,35.3,28.8,30.28,WNW,302,0.0,1.0,77,0.00,,OVC065,0.09,VWS V14.01,2013-01-15 17:52:00,
2013-01-15 12:57:00,35.5,29.0,30.28,ESE,116,0.0,1.0,77,0.00,,OVC065,0.09,VWS V14.01,2013-01-15 17:57:00,
2013-01-15 13:02:00,35.6,28.8,30.27,NNE,18,0.0,1.0,76,0.00,,OVC065,0.09,VWS V14.01,2013-01-15 18:02:00,
2013-01-15 13:07:00,35.7,29.8,30.27,WNW,283,0.0,0.0,79,0.00,,OVC065,0.09,VWS V14.01,2013-01-15 18:07:00,
2013-01-15 13:12:00,35.8,29.6,30.27,NW,312,0.0,1.0,78,0.00,,OVC065,0.09,VWS V14.01,2013-01-15 18:12:00,
2013-01-15 13:17:00,35.6,29.1,30.27,ENE,73,0.0,2.0,77,0.00,,OVC065,0.09,VWS V14.01,2013-01-15 18:17:00,
2013-01-15 13:22:00,35.4,28.6,30.27,NW,321,0.0,3.0,76,0.00,,OVC065,0.09,VWS V14.01,2013-01-15 18:22:00,
2013-01-15 13:27:00,35.4,28.6,30.26,NW,321,0.0,0.0,76,0.00,,OVC065,0.09,VWS V14.01,2013-01-15 18:27:00,
2013-01-15 13:32:00,35.4,28.6,30.26,NW,326,0.0,0.0,76,0.00,,OVC065,0.09,VWS V14.01,2013-01-15 18:32:00,
2013-01-15 13:37:00,35.6,29.1,30.26,NW,321,0.0,1.0,77,0.00,,OVC065,0.09,VWS V14.01,2013-01-15 18:37:00,
2013-01-15 13:42:00,35.7,28.6,30.26,NW,314,0.0,3.0,75,0.00,,OVC065,0.09,VWS V14.01,2013-01-15 18:42:00,
2013-01-15 13:47:00,35.7,28.9,30.26,North,1,4.0,4.0,76,0.00,,OVC065,0.09,VWS V14.01,2013-01-15 18:47:00,
2013-01-15 13:52:00,35.7,29.2,30.25,ENE,60,1.0,2.0,77,0.00,,OVC065,0.09,VWS V14.01,2013-01-15 18:52:00,
2013-01-15 13:57:00,36.0,29.5,30.24,ENE,76,0.0,1.0,77,0.00,,OVC065,0.09,VWS V14.01,2013-01-15 18:57:00,
2013-01-15 14:02:00,36.4,30.2,30.24,ESE,120,0.0,1.0,78,0.00,,OVC060,0.09,VWS V14.01,2013-01-15 19:02:00,
2013-01-15 14:07:00,36.5,29.7,30.24,North,358,0.0,4.0,76,0.00,,OVC060,0.09,VWS V14.01,2013-01-15 19:07:00,
2013-01-15 14:12:00,36.5,30.3,30.25,NE,46,0.0,1.0,78,0.00,,OVC060,0.09,VWS V14.01,2013-01-15 19:12:00,
2013-01-15 14:17:00,36.7,29.5,30.25,NW,308,0.0,1.0,75,0.00,,OVC060,0.09,VWS V14.01,2013-01-15 19:17:00,
2013-01-15 14:22:00,36.7,29.5,30.25,ENE,65,0.0,1.0,75,0.00,,OVC060,0.09,VWS V14.01,2013-01-15 19:22:00,
2013-01-15 14:28:00,36.5,29.0,30.24,North,10,1.0,1.0,74,0.00,,OVC060,0.09,VWS V14.01,2013-01-15 19:28:00,
2013-01-15 14:33:00,36.1,29.0,30.25,WNW,290,0.0,4.0,75,0.00,,OVC060,0.09,VWS V14.01,2013-01-15 19:33:00,
2013-01-15 14:38:00,36.1,29.0,30.25,NNW,335,1.0,3.0,75,0.00,,OVC060,0.09,VWS V14.01,2013-01-15 19:38:00,
2013-01-15 14:43:00,36.0,29.2,30.25,North,352,1.0,1.0,76,0.00,,OVC060,0.09,VWS V14.01,2013-01-15 19:43:00,
2013-01-15 14:48:00,36.0,29.2,30.25,WNW,301,0.0,1.0,76,0.00,,OVC060,0.09,VWS V14.01,2013-01-15 19:48:00,
2013-01-15 14:53:00,35.9,28.8,30.25,NE,41,0.0,4.0,75,0.00,,OVC060,0.09,VWS V14.01,2013-01-15 19:53:00,
2013-01-15 14:58:00,35.9,29.1,30.25,NW,326,0.0,2.0,76,0.00,,OVC060,0.09,VWS V14.01,2013-01-15 19:58:00,
2013-01-15 15:03:00,35.9,28.8,30.26,WNW,288,3.0,5.0,75,0.00,,OVC060,0.09,VWS V14.01,2013-01-15 20:03:00,
2013-01-15 15:08:00,35.9,29.1,30.25,NNW,341,3.0,3.0,76,0.00,,OVC060,0.09,VWS V14.01,2013-01-15 20:08:00,
2013-01-15 15:13:00,35.9,29.4,30.26,NW,316,0.0,3.0,77,0.00,,OVC060,0.09,VWS V14.01,2013-01-15 20:13:00,
2013-01-15 15:18:00,36.0,29.2,30.25,NW,312,0.0,4.0,76,0.00,,OVC060,0.09,VWS V14.01,2013-01-15 20:18:00,
2013-01-15 15:23:00,36.0,29.2,30.26,NNW,347,4.0,4.0,76,0.00,,OVC060,0.09,VWS V14.01,2013-01-15 20:23:00,
2013-01-15 15:28:00,35.9,29.1,30.25,NE,46,0.0,1.0,76,0.00,,OVC060,0.09,VWS V14.01,2013-01-15 20:28:00,
2013-01-15 15:33:00,36.1,29.3,30.26,NW,307,0.0,1.0,76,0.00,,OVC060,0.09,VWS V14.01,2013-01-15 20:33:00,
2013-01-15 15:38:00,35.9,28.8,30.26,NW,316,2.0,5.0,75,0.00,,OVC060,0.09,VWS V14.01,2013-01-15 20:38:00,
2013-01-15 15:43:00,35.7,28.6,30.26,ENE,76,0.0,3.0,75,0.00,,OVC060,0.09,VWS V14.01,2013-01-15 20:43:00,
2013-01-15 15:48:00,35.7,28.9,30.25,NNW,340,0.0,1.0,76,0.00,,OVC060,0.09,VWS V14.01,2013-01-15 20:48:00,
2013-01-15 15:53:00,35.8,29.3,30.26,North,6,3.0,6.0,77,0.00,,OVC060,0.09,VWS V14.01,2013-01-15 20:53:00,
2013-01-15 15:58:00,35.7,28.6,30.26,NW,309,0.0,4.0,75,0.00,,OVC060,0.09,VWS V14.01,2013-01-15 20:58:00,
2013-01-15 16:03:00,35.7,29.2,30.26,WNW,293,0.0,2.0,77,0.00,,OVC055,0.09,VWS V14.01,2013-01-15 21:03:00,
2013-01-15 16:08:00,35.6,28.8,30.26,NW,321,0.0,2.0,76,0.00,,OVC055,0.09,VWS V14.01,2013-01-15 21:08:00,
2013-01-15 16:13:00,35.6,28.8,30.26,NNW,327,0.0,4.0,76,0.00,,OVC055,0.09,VWS V14.01,2013-01-15 21:13:00,
2013-01-15 16:18:00,35.6,28.8,30.26,NNE,18,2.0,4.0,76,0.00,,OVC055,0.09,VWS V14.01,2013-01-15 21:18:00,
2013-01-15 16:23:00,35.5,29.0,30.26,NE,49,0.0,3.0,77,0.00,,OVC055,0.09,VWS V14.01,2013-01-15 21:23:00,
2013-01-15 16:28:00,35.5,29.0,30.26,NE,45,0.0,1.0,77,0.00,,OVC055,0.09,VWS V14.01,2013-01-15 21:28:00,
2013-01-15 16:34:00,35.5,29.3,30.26,NNW,338,0.0,1.0,78,0.00,,OVC055,0.09,VWS V14.01,2013-01-15 21:34:00,
2013-01-15 16:38:00,35.5,29.3,30.25,East,92,1.0,1.0,78,0.00,,OVC055,0.09,VWS V14.01,2013-01-15 21:38:00,
2013-01-15 16:44:00,35.5,29.3,30.25,ENE,78,0.0,1.0,78,0.00,,OVC055,0.09,VWS V14.01,2013-01-15 21:44:00,
2013-01-15 16:49:00,35.5,29.3,30.24,North,356,0.0,1.0,78,0.00,,OVC055,0.09,VWS V14.01,2013-01-15 21:49:00,
2013-01-15 16:54:00,35.4,29.5,30.24,WNW,290,0.0,0.0,79,0.00,,OVC055,0.09,VWS V14.01,2013-01-15 21:54:00,
2013-01-15 16:59:00,35.4,29.2,30.24,East,81,0.0,1.0,78,0.00,,OVC055,0.09,VWS V14.01,2013-01-15 21:59:00,
2013-01-15 17:04:00,35.4,29.2,30.24,ENE,58,0.0,1.0,78,0.00,,OVC055,0.09,VWS V14.01,2013-01-15 22:04:00,
2013-01-15 17:09:00,35.4,28.9,30.24,WNW,290,0.0,0.0,77,0.00,,OVC055,0.09,VWS V14.01,2013-01-15 22:09:00,
2013-01-15 17:14:00,35.4,29.2,30.24,East,95,0.0,0.0,78,0.00,,OVC055,0.09,VWS V14.01,2013-01-15 22:14:00,
2013-01-15 17:19:00,35.4,29.2,30.24,East,90,0.0,1.0,78,0.00,,OVC055,0.09,VWS V14.01,2013-01-15 22:19:00,
2013-01-15 17:24:00,35.4,29.2,30.25,East,90,0.0,0.0,78,0.00,,OVC055,0.09,VWS V14.01,2013-01-15 22:24:00,
2013-01-15 17:29:00,35.4,29.2,30.24,ENE,75,0.0,1.0,78,0.00,,OVC055,0.09,VWS V14.01,2013-01-15 22:29:00,
2013-01-15 17:34:00,35.4,29.2,30.25,NNW,332,0.0,0.0,78,0.00,,OVC055,0.09,VWS V14.01,2013-01-15 22:34:00,
2013-01-15 17:39:00,35.4,28.6,30.26,NNW,330,0.0,1.0,76,0.00,,OVC055,0.09,VWS V14.01,2013-01-15 22:39:00,
2013-01-15 17:44:00,35.5,29.0,30.25,NE,41,0.0,0.0,77,0.00,,OVC055,0.09,VWS V14.01,2013-01-15 22:44:00,
2013-01-15 17:49:00,35.5,29.0,30.26,NE,41,0.0,0.0,77,0.00,,OVC055,0.09,VWS V14.01,2013-01-15 22:49:00,
2013-01-15 17:54:00,35.5,29.3,30.26,NW,325,0.0,0.0,78,0.00,,OVC055,0.09,VWS V14.01,2013-01-15 22:54:00,
2013-01-15 17:59:00,35.5,29.6,30.26,ENE,68,0.0,0.0,79,0.00,,OVC055,0.09,VWS V14.01,2013-01-15 22:59:00,
2013-01-15 18:04:00,35.5,29.6,30.26,NW,321,0.0,0.0,79,0.00,,OVC046,0.09,VWS V14.01,2013-01-15 23:04:00,
2013-01-15 18:09:00,35.5,30.0,30.27,NW,319,0.0,0.0,80,0.00,,OVC046,0.09,VWS V14.01,2013-01-15 23:09:00,
2013-01-15 18:14:00,35.5,30.0,30.27,NW,321,0.0,0.0,80,0.00,,OVC046,0.09,VWS V14.01,2013-01-15 23:14:00,
2013-01-15 18:19:00,35.4,29.5,30.27,NW,321,0.0,0.0,79,0.00,,OVC046,0.09,VWS V14.01,2013-01-15 23:19:00,
2013-01-15 18:24:00,35.4,29.9,30.27,North,8,0.0,0.0,80,0.00,,OVC046,0.09,VWS V14.01,2013-01-15 23:24:00,
2013-01-15 18:29:00,35.4,29.9,30.26,East,101,0.0,1.0,80,0.00,,OVC046,0.09,VWS V14.01,2013-01-15 23:29:00,
2013-01-15 18:34:00,35.3,30.1,30.26,ESE,103,0.0,1.0,81,0.00,,OVC046,0.09,VWS V14.01,2013-01-15 23:34:00,
2013-01-15 18:39:00,35.2,29.7,30.26,ESE,110,0.0,1.0,80,0.00,,OVC046,0.09,VWS V14.01,2013-01-15 23:39:00,
2013-01-15 18:44:00,35.2,30.0,30.26,ESE,115,0.0,1.0,81,0.00,,OVC046,0.09,VWS V14.01,2013-01-15 23:44:00,
2013-01-15 18:49:00,35.2,30.0,30.26,ESE,103,0.0,1.0,81,0.00,,OVC046,0.09,VWS V14.01,2013-01-15 23:49:00,
2013-01-15 18:54:00,35.1,29.9,30.25,East,99,1.0,1.0,81,0.00,,OVC046,0.09,VWS V14.01,2013-01-15 23:54:00,
2013-01-15 18:59:00,35.1,29.6,30.26,East,92,0.0,1.0,80,0.00,,OVC046,0.09,VWS V14.01,2013-01-15 23:59:00,
2013-01-15 19:04:00,35.1,29.6,30.25,ESE,104,0.0,1.0,80,0.00,,OVC040,0.09,VWS V14.01,2013-01-16 00:04:00,
2013-01-15 19:10:00,35.1,29.6,30.25,ESE,102,0.0,0.0,80,0.00,,OVC040,0.09,VWS V14.01,2013-01-16 00:10:00,
2013-01-15 19:15:00,35.1,29.9,30.25,East,97,0.0,1.0,81,0.00,,OVC040,0.09,VWS V14.01,2013-01-16 00:15:00,
2013-01-15 19:20:00,35.1,29.9,30.25,ESE,103,0.0,1.0,81,0.00,,OVC040,0.09,VWS V14.01,2013-01-16 00:20:00,
2013-01-15 19:25:00,35.0,29.8,30.25,SE,124,0.0,1.0,81,0.00,,OVC040,0.09,VWS V14.01,2013-01-16 00:25:00,
2013-01-15 19:30:00,35.0,29.8,30.25,SE,130,0.0,0.0,81,0.00,,OVC040,0.09,VWS V14.01,2013-01-16 00:30:00,
2013-01-15 19:35:00,35.0,29.5,30.26,SE,129,0.0,0.0,80,0.00,,OVC040,0.09,VWS V14.01,2013-01-16 00:35:00,
2013-01-15 19:40:00,35.1,29.9,30.26,SE,129,0.0,0.0,81,0.00,,OVC040,0.09,VWS V14.01,2013-01-16 00:40:00,
2013-01-15 19:45:00,35.0,29.5,30.25,East,87,0.0,0.0,80,0.00,,OVC040,0.09,VWS V14.01,2013-01-16 00:45:00,
2013-01-15 19:50:00,35.1,29.9,30.25,East,89,0.0,1.0,81,0.00,,OVC040,0.09,VWS V14.01,2013-01-16 00:50:00,
2013-01-15 19:55:00,35.1,29.6,30.25,NE,44,0.0,0.0,80,0.00,,OVC040,0.09,VWS V14.01,2013-01-16 00:55:00,
2013-01-15 20:00:00,35.1,29.6,30.25,NNE,15,0.0,0.0,80,0.00,,OVC040,0.09,VWS V14.01,2013-01-16 01:00:00,
2013-01-15 20:05:00,35.1,29.3,30.24,ENE,60,0.0,0.0,79,0.00,,OVC055,0.09,VWS V14.01,2013-01-16 01:05:00,
2013-01-15 20:10:00,35.2,30.0,30.24,East,99,0.0,0.0,81,0.00,,OVC055,0.09,VWS V14.01,2013-01-16 01:10:00,
2013-01-15 20:15:00,35.1,29.6,30.24,East,99,0.0,1.0,80,0.00,,OVC055,0.09,VWS V14.01,2013-01-16 01:15:00,
2013-01-15 20:20:00,35.1,30.2,30.24,East,94,0.0,0.0,82,0.00,,OVC055,0.09,VWS V14.01,2013-01-16 01:20:00,
2013-01-15 20:25:00,35.0,29.8,30.24,East,91,0.0,1.0,81,0.00,,OVC055,0.09,VWS V14.01,2013-01-16 01:25:00,
2013-01-15 20:30:00,35.0,29.8,30.23,ESE,103,0.0,1.0,81,0.00,,OVC055,0.09,VWS V14.01,2013-01-16 01:30:00,
2013-01-15 20:35:00,34.9,29.7,30.23,ESE,121,1.0,1.0,81,0.00,,OVC055,0.09,VWS V14.01,2013-01-16 01:35:00,
2013-01-15 20:40:00,34.9,29.4,30.23,ESE,104,0.0,5.0,80,0.00,,OVC055,0.09,VWS V14.01,2013-01-16 01:40:00,
2013-01-15 20:45:00,34.8,29.3,30.22,ESE,105,0.0,2.0,80,0.00,,OVC055,0.09,VWS V14.01,2013-01-16 01:45:00,
2013-01-15 20:50:00,34.7,29.5,30.23,ESE,105,0.0,2.0,81,0.01,,OVC055,0.10,VWS V14.01,2013-01-16 01:50:00,
2013-01-15 20:55:00,34.5,29.0,30.23,ESE,116,0.0,1.0,80,0.01,,OVC055,0.10,VWS V14.01,2013-01-16 01:55:00,
2013-01-15 21:00:00,34.4,29.5,30.23,East,79,0.0,0.0,82,0.01,,OVC055,0.10,VWS V14.01,2013-01-16 02:00:00,
2013-01-15 21:05:00,34.2,29.6,30.22,East,81,0.0,0.0,83,0.01,,-RA,0.10,VWS V14.01,2013-01-16 02:05:00,
2013-01-15 21:10:00,34.1,29.8,30.23,East,82,0.0,0.0,84,0.01,,-RA,0.10,VWS V14.01,2013-01-16 02:10:00,
2013-01-15 21:15:00,34.1,30.6,30.23,East,82,0.0,0.0,87,0.02,,-RA,0.11,VWS V14.01,2013-01-16 02:15:00,
2013-01-15 21:20:00,33.9,30.7,30.23,NE,54,0.0,0.0,88,0.02,,-RA,0.11,VWS V14.01,2013-01-16 02:20:00,
2013-01-15 21:25:00,33.7,31.1,30.23,North,1,0.0,0.0,90,0.02,,-RA,0.11,VWS V14.01,2013-01-16 02:25:00,
2013-01-15 21:30:00,33.5,31.2,30.23,North,1,0.0,0.0,91,0.03,,-RA,0.12,VWS V14.01,2013-01-16 02:30:00,
2013-01-15 21:35:00,33.3,31.0,30.23,North,1,0.0,0.0,91,0.03,,-RA,0.12,VWS V14.01,2013-01-16 02:35:00,
2013-01-15 21:40:00,33.3,31.2,30.23,North,1,0.0,0.0,92,0.03,,-RA,0.12,VWS V14.01,2013-01-16 02:40:00,
2013-01-15 21:45:00,33.2,30.9,30.22,North,1,0.0,0.0,91,0.04,,-RA,0.13,VWS V14.01,2013-01-16 02:45:00,
2013-01-15 21:50:00,33.1,31.0,30.22,North,359,0.0,0.0,92,0.04,,-RA,0.13,VWS V14.01,2013-01-16 02:50:00,
2013-01-15 21:55:00,33.1,31.0,30.23,NW,305,0.0,0.0,92,0.04,,-RA,0.14,VWS V14.01,2013-01-16 02:55:00,
2013-01-15 22:00:00,33.0,30.9,30.23,NW,305,0.0,0.0,92,0.04,,-RA,0.14,VWS V14.01,2013-01-16 03:00:00,
2013-01-15 22:05:00,32.9,30.8,30.22,North,356,0.0,0.0,92,0.05,,-RA,0.15,VWS V14.01,2013-01-16 03:05:00,
2013-01-15 22:10:00,32.7,30.9,30.22,North,356,0.0,1.0,93,0.05,,-RA,0.15,VWS V14.01,2013-01-16 03:10:00,
2013-01-15 22:15:00,32.5,30.7,30.22,NNW,348,0.0,1.0,93,0.06,,-RA,0.16,VWS V14.01,2013-01-16 03:15:00,
2013-01-15 22:20:00,32.4,30.6,30.22,NNE,17,0.0,0.0,93,0.05,,-RA,0.16,VWS V14.01,2013-01-16 03:20:00,
2013-01-15 22:25:00,32.4,30.9,30.22,NNE,15,0.0,0.0,94,0.06,,-RA,0.17,VWS V14.01,2013-01-16 03:25:00,
2013-01-15 22:30:00,32.3,30.8,30.21,NE,53,0.0,1.0,94,0.06,,-RA,0.17,VWS V14.01,2013-01-16 03:30:00,
2013-01-15 22:35:00,32.3,30.8,30.21,East,94,0.0,0.0,94,0.06,,-RA,0.18,VWS V14.01,2013-01-16 03:35:00,
2013-01-15 22:40:00,32.2,30.7,30.20,East,85,0.0,1.0,94,0.07,,-RA,0.19,VWS V14.01,2013-01-16 03:40:00,
2013-01-15 22:45:00,32.1,30.6,30.20,ENE,75,0.0,1.0,94,0.08,,-RA,0.20,VWS V14.01,2013-01-16 03:45:00,
2013-01-15 22:50:00,32.1,30.8,30.20,ENE,70,0.0,0.0,95,0.08,,-RA,0.21,VWS V14.01,2013-01-16 03:50:00,
2013-01-15 22:55:00,32.1,30.8,30.20,ENE,71,0.0,0.0,95,0.09,,-RA,0.22,VWS V14.01,2013-01-16 03:55:00,
2013-01-15 23:00:00,32.0,30.7,30.19,ENE,72,0.0,0.0,95,0.09,,-RA,0.23,VWS V14.01,2013-01-16 04:00:00,
2013-01-15 23:05:00,31.9,30.6,30.19,ESE,104,0.0,1.0,95,0.10,,RA,0.24,VWS V14.01,2013-01-16 04:05:00,
2013-01-15 23:10:00,31.9,30.6,30.18,East,96,1.0,1.0,95,0.10,,RA,0.25,VWS V14.01,2013-01-16 04:10:00,
2013-01-15 23:15:00,31.9,30.6,30.18,East,80,0.0,1.0,95,0.11,,RA,0.26,VWS V14.01,2013-01-16 04:15:00,
2013-01-15 23:20:00,31.8,30.8,30.18,ESE,105,0.0,1.0,96,0.10,,RA,0.26,VWS V14.01,2013-01-16 04:20:00,
2013-01-15 23:25:00,31.8,30.8,30.18,East,94,0.0,1.0,96,0.11,,RA,0.27,VWS V14.01,2013-01-16 04:25:00,
2013-01-15 23:30:00,31.8,30.8,30.18,ESE,107,0.0,1.0,96,0.11,,RA,0.28,VWS V14.01,2013-01-16 04:30:00,
2013-01-15 23:35:00,31.8,30.8,30.18,East,81,0.0,1.0,96,0.13,,RA,0.30,VWS V14.01,2013-01-16 04:35:00,
2013-01-15 23:40:00,31.8,30.8,30.19,ESE,103,0.0,1.0,96,0.13,,RA,0.31,VWS V14.01,2013-01-16 04:40:00,
2013-01-15 23:45:00,31.9,31.1,30.19,ESE,103,0.0,0.0,97,0.12,,RA,0.32,VWS V14.01,2013-01-16 04:45:00,
2013-01-15 23:50:00,32.0,31.2,30.18,ESE,103,0.0,0.0,97,0.12,,RA,0.33,VWS V14.01,2013-01-16 04:50:00,
2013-01-15 23:55:00,31.9,31.1,30.18,East,82,0.0,0.0,97,0.12,,RA,0.34,VWS V14.01,2013-01-16 04:55:00,